This is the latest recevied weather packets stored in our database for station/object K5DLF-13. If no packets are shown the sender has not sent any weather packets the latest 10 day(s).
| Time | Temp. | Humidity | Pressure | Rain* | Wind** | Luminosity | Snow |
|---|---|---|---|---|---|---|---|
| 1778009097 | 27.22° C | 85% | 1006.4 hPa | 0 mm | - | 229 W/m² | - |
| 1778008797 | 27.22° C | 86% | 1006.5 hPa | 0 mm | - | 315 W/m² | - |
| 1778008497 | 27.22° C | 86% | 1006.5 hPa | 0 mm | - | 258 W/m² | - |
| 1778008197 | 27.22° C | 88% | 1006.6 hPa | 0 mm | - | 221 W/m² | - |
| 1778007897 | 26.67° C | 88% | 1006.6 hPa | 0 mm | - | 313 W/m² | - |
| 1778007597 | 26.67° C | 88% | 1006.6 hPa | 0 mm | - | 216 W/m² | - |
| 1778007297 | 26.67° C | 87% | 1006.5 hPa | 0 mm | - | 195 W/m² | - |
| 1778006997 | 26.67° C | 87% | 1006.7 hPa | 0 mm | - | 72 W/m² | - |
| 1778006697 | 26.67° C | 87% | 1006.8 hPa | 0 mm | - | 74 W/m² | - |
| 1778006397 | 26.67° C | 87% | 1006.9 hPa | 0 mm | - | 149 W/m² | - |
| 1778006097 | 26.67° C | 88% | 1007 hPa | 0 mm | - | 174 W/m² | - |
| 1778005797 | 26.67° C | 88% | 1007 hPa | 0 mm | - | 128 W/m² | - |
| 1778005497 | 26.67° C | 88% | 1007.2 hPa | 0 mm | - | 211 W/m² | - |
| 1778005197 | 26.67° C | 87% | 1007 hPa | 0 mm | - | 221 W/m² | - |
| 1778004897 | 26.67° C | 87% | 1007.1 hPa | 0 mm | - | 134 W/m² | - |
| 1778004597 | 26.67° C | 87% | 1007.1 hPa | 0 mm | - | 123 W/m² | - |
| 1778004297 | 26.67° C | 87% | 1007.1 hPa | 0 mm | - | 135 W/m² | - |
| 1778003997 | 26.67° C | 87% | 1007 hPa | 0 mm | - | 146 W/m² | - |
| 1778003697 | 26.67° C | 86% | 1007.1 hPa | 0 mm | - | 181 W/m² | - |
| 1778003397 | 26.67° C | 86% | 1007.1 hPa | 0 mm | - | 130 W/m² | - |
| 1778003097 | 26.67° C | 88% | 1007 hPa | 0 mm | - | 120 W/m² | - |
| 1778002797 | 26.67° C | 88% | 1007.2 hPa | 0 mm | - | 258 W/m² | - |
| 1778002497 | 26.67° C | 89% | 1007.2 hPa | 0 mm | - | 200 W/m² | - |
| 1778002197 | 26.11° C | 88% | 1007.4 hPa | 0 mm | - | 265 W/m² | - |
| 1778001897 | 26.11° C | 88% | 1007.4 hPa | 0 mm | - | 213 W/m² | - |
* Rain latest hour (hover to see other rain measurements)
** Current wind speed in m/s (hover to see current wind gust speed)